Regional Weather Roundup
Issued by NWS Wilmington, NC

Home | Current Version | Previous Version | Text Only | Print | Product List | Glossary On
Versions: 1 2 3 4 5 6 7 8 9 10 11 12 13 14 15 16 17 18 19 20 21 22 23 24 25 26 27 28 29 30 31 32 33 34 35 36 37 38 39 40 41 42 43 44 45 46 47 48 49 50
000
ASUS42 KILM 011813
RWRILM
RWRILM
REGIONAL HOURLY WEATHER ROUNDUP
NATIONAL WEATHER SERVICE WILMINGTON NC
100 PM EST WED MAR 01 2017

NOTE: "FAIR" INDICATES FEW OR NO CLOUDS BELOW 12,000 FEET WITH NO
SIGNIFICANT WEATHER AND/OR OBSTRUCTIONS TO VISIBILITY.

...............WFO WILMINGTON COUNTY WARNING AREA...............

......COASTAL NC AND SC COUNTIES......

CITY           SKY/WX    TMP DP  RH WIND       PRES   REMARKS
WILMINGTON     PTSUNNY   77  67  71 S22G33    29.99F
N MYRTLE BEACH MOSUNNY   71  65  81 SW22G30   30.01F
MYRTLE BEACH   PTSUNNY   75  66  73 S23       30.02F

......INLAND NC AND SC COUNTIES.......

CITY           SKY/WX    TMP DP  RH WIND       PRES   REMARKS
LUMBERTON      LGT RAIN  81  60  48 SW24G39   29.96F
ELIZABETHTOWN  PTSUNNY   79  63  56 SW14G20   29.96F
WHITEVILLE     PTSUNNY   81  62  53 SW20G29   29.97F
FLORENCE       MOSUNNY   81  61  50 SW22G37   29.98F
DARLINGTON     PTSUNNY   77  62  59 SW21G26   29.99F
KINGSTREE      CLOUDY    79  59  50 SW14G20   30.00F
HARTSVILLE     FAIR      73  59  60 SW12G22   29.99F
BENNETTSVILLE  NOT AVBL
CONWAY         PTSUNNY   81  63  54 SW17G24   29.99F HAZE
GEORGETOWN     FAIR      81  64  57 S15G23    30.02F
MARION         PTSUNNY   79  61  53 SW22G32   29.99F

....................REST OF NORTH CAROLINA......................

.........EASTERN NC.........

CITY           SKY/WX    TMP DP  RH WIND       PRES   REMARKS
CAPE HATTERAS  PTSUNNY   74  65  73 SW21G30   29.98F HAZE
JACKSONVILLE   PTSUNNY   78  66  66 S20G26    29.96F
MOREHEAD CITY  CLOUDY    73  66  78 SW21G32   29.99F
KENANSVILLE    CLOUDY    79  63  57 SW21G29   29.95F
NEW BERN       CLOUDY    78  66  66 SW20G36   29.96F
ELIZABETH CITY CLOUDY    78  64  61 S20G28    29.86F

.........CENTRAL NC.........

CITY           SKY/WX    TMP DP  RH WIND       PRES   REMARKS
RALEIGH DURHAM PTSUNNY   78  57  48 SW35G43   29.90F
ROCKY MOUNT    PTSUNNY   78  62  57 SW22G38   29.90F
ROANOKE RAPIDS NOT AVBL
FAYETTEVILLE   CLOUDY   N/A N/A N/A W18G29    29.95S
HOFFMAN        CLOUDY    79  58  48 SW21G28   29.96F

.........WESTERN NC.........

CITY           SKY/WX    TMP DP  RH WIND       PRES   REMARKS
CHARLOTTE      CLOUDY    74  57  55 SW16G24   29.94F
GREENSBORO     CLOUDY    72  58  61 SW28G37   29.87F
HICKORY        NOT AVBL
BOONE          NOT AVBL
ASHEVILLE      NOT AVBL

.....................REST OF SOUTH CAROLINA.....................

.........EASTERN SC.........

CITY           SKY/WX    TMP DP  RH WIND       PRES   REMARKS
CHARLESTON     PTSUNNY   81  63  54 SW20G26   30.03F
BEAUFORT MCAS  PTSUNNY   80  68  66 S10       30.04F
HILTON HEAD    SUNNY     75  66  73 S14G21    30.08F

.........CENTRAL SC.........

CITY           SKY/WX    TMP DP  RH WIND       PRES   REMARKS
COLUMBIA       PTSUNNY   79  58  48 SW15G23   30.00F
ORANGEBURG     CLOUDY    81  61  50 SW22G29   30.01F
SUMTER SHAW    SUNNY     77  59  54 SW21G37   29.98F

.........WESTERN SC.........

CITY           SKY/WX    TMP DP  RH WIND       PRES   REMARKS
GREENVILLE     NOT AVBL
ROCK HILL      PTSUNNY   75  57  53 SW14G30   29.96F
ANDERSON       CLOUDY    74  58  57 SW17G24   29.94F
CLEMSON        NOT AVBL
GREENWOOD      PTSUNNY   74  58  57 SW22G32   29.98F


...................COASTAL AND OFFSHORE REPORTS..................

................LOCAL PIERS AND NC RESERVE................


STATION/POSITION TIME  SKY/WX   TEMP    WIND        PRES    VSBY
                                AIR SEA DIR/SP/G
                 (UTC)          (F)     (DEG/KT/KT) (MB)    (MI)
JOHNY MRCER PIER 1748            72 60  210/ 29/ 35 1014.5F
NC RESRV MASNBRO 1645            73     250/  9     1017.0
OCEAN CREST PIER NOT AVBL
SPRINGMAID  PIER 1748                               1015.5F


................COASTAL AND OFFSHORE BUOYS................


STATION/POSITION TIME  SKY/WX   TEMP    WIND        PRES    VSBY
                                AIR SEA DIR/SP/G
                 (UTC)          (F)     (DEG/KT/KT) (MB)    (MI)
DIMNDSHOAL 41025 1750            74 74  210/ 27/ 35 1015.1F
WVE H/P(F/S)=  9/ 7 SWL H/P/D(F/S/D)=  2/300/12

CAPE LOOKOUT     1800            70     200/ 16/ 23 1015.8F
ONSLOW BAY 41036 NOT AVBL
ONSLOW BAY 41064 1708            68     220/ 17/ 23 1017.8F
ONSLOW BAY 41159 1743               65                N/A
WVE H/P(F/S)=  6/ 6

MASNBO INL 41110 1659               59                N/A
WVE H/P(F/S)=  4/ 7

WILM HARBR 41108 1747               59                N/A
WVE H/P(F/S)=  4/ 6

27SE WRITB 41037 1708            67 62  200/ 16/ 21 1017.9F
FRYING PAN 41013 1800            72 70  200/ 17/ 21 1017.6
SUNST NRSH 41024 1708            64 61  220/ 17/ 21 1017.0F
CAPRS NRSH 41029 1708            64 62  230/ 14/ 19 1018.6F
EDISTO     41004 1750            71 69  220/ 21/ 25 1017.6F
WVE H/P(F/S)=  5/ 6 SWL H/P/D(F/S/D)=  2/220/14



..........OFFSHORE BUOYS BEYOND 100 NM OFFSHORE...........
.....IN A TRIANGLE---HAT TO BERMUDA TO BAHAMAS TO HAT.....


STATION/POSITION TIME  SKY/WX   TEMP    WIND        PRES    VSBY
                                AIR SEA DIR/SP/G
                 (UTC)          (F)     (DEG/KT/KT) (MB)    (MI)
150E HAT   41001 NOT AVBL
W BERMUDA  41048 1750            70 70  180/ 12/ 14 1023.8F
WVE H/P(F/S)=  4/ 7 SWL H/P/D(F/S/D)=  3/110/ 7

ATLANTIC S 41049 1750            71 73  100/ 16/ 19 1025.4F
WVE H/P(F/S)=  7/ 7 SWL H/P/D(F/S/D)=  3/ 90/ 9

E BAHAMAS  41046 1800            78 79   80/ 17/ 21 1019.0
NE BAHAMAS 41047 1800            72 73  120/ 10/ 12 1022.5
120E CANVRL41010 NOT AVBL

END



USA.gov is the U.S. government's official web portal to all federal, state and local government web resources and services.